This is the latest recevied weather packets stored in our database for station/object K8JCL-13. If no packets are shown the sender has not sent any weather packets the latest 10 day(s).
| Time | Temp. | Humidity | Pressure | Rain* | Wind** | Luminosity | Snow |
|---|---|---|---|---|---|---|---|
| 1777776072 | 3.89° C | 76% | 1018.6 hPa | 0 mm | - | 0 W/m² | - |
| 1777775769 | 3.89° C | 78% | 1018.6 hPa | 0 mm | - | 0 W/m² | - |
| 1777775467 | 3.89° C | 78% | 1018.7 hPa | 0 mm | - | 0 W/m² | - |
| 1777775162 | 3.89° C | 77% | 1018.6 hPa | 0 mm | - | 0 W/m² | - |
| 1777774857 | 3.89° C | 75% | 1018.6 hPa | 0 mm | - | 0 W/m² | - |
| 1777774555 | 3.89° C | 73% | 1018.6 hPa | 0 mm | - | 0 W/m² | - |
| 1777774251 | 3.89° C | 75% | 1018.7 hPa | 0 mm | - | 0 W/m² | - |
| 1777773948 | 3.89° C | 75% | 1018.7 hPa | 0 mm | - | 0 W/m² | - |
| 1777773645 | 4.44° C | 74% | 1018.7 hPa | 0 mm | - | 0 W/m² | - |
| 1777773342 | 4.44° C | 73% | 1018.6 hPa | 0 mm | - | 0 W/m² | - |
| 1777773039 | 4.44° C | 74% | 1018.6 hPa | 0 mm | - | 0 W/m² | - |
| 1777772735 | 4.44° C | 74% | 1018.5 hPa | 0 mm | - | 0 W/m² | - |
| 1777772433 | 4.44° C | 71% | 1018.4 hPa | 0 mm | - | 0 W/m² | - |
| 1777772130 | 5° C | 73% | 1018.4 hPa | 0 mm | - | 0 W/m² | - |
| 1777771827 | 5° C | 72% | 1018.4 hPa | 0 mm | - | 0 W/m² | - |
| 1777771525 | 5° C | 72% | 1018.3 hPa | 0 mm | - | 0 W/m² | - |
| 1777771221 | 5° C | 72% | 1018.4 hPa | 0 mm | - | 0 W/m² | - |
| 1777770918 | 5° C | 72% | 1018.3 hPa | 0 mm | - | 0 W/m² | - |
| 1777770615 | 5.56° C | 71% | 1018.3 hPa | 0 mm | - | 0 W/m² | - |
| 1777770311 | 5.56° C | 70% | 1018.2 hPa | 0 mm | - | 0 W/m² | - |
| 1777770009 | 6.11° C | 71% | 1018.2 hPa | 0 mm | - | 0 W/m² | - |
| 1777769706 | 6.11° C | 70% | 1018.3 hPa | 0 mm | - | 0 W/m² | - |
| 1777769403 | 6.67° C | 66% | 1018.1 hPa | 0 mm | - | 0 W/m² | - |
| 1777769099 | 6.67° C | 64% | 1017.9 hPa | 0 mm | - | 0 W/m² | - |
| 1777768797 | 7.22° C | 60% | 1018.1 hPa | 0 mm | - | 1 W/m² | - |
* Rain latest hour (hover to see other rain measurements)
** Current wind speed in m/s (hover to see current wind gust speed)